Location: Proctor
(47.8934°N, 114.3048°W)
Time: 22:15:38
(UTC+00:00)

Tiros 1 despin weight - Pass Details

Date: 30 June 2024
Orbit: 576 x 620 km, 48.2° (Epoch: 19 July)

Event Time Altitude Azimuth Distance (km) Brightness Sun altitude
Rises 22:22:06 0° 284° (WNW) 2,897 ? 49.6°
Reaches altitude 10° 22:24:39 10° 273° (W) 1,988 ? 49.2°
Maximum altitude 22:28:32 28° 215° (SW) 1,175 ? 48.6°
Drops below altitude 10° 22:32:24 10° 157° (SSE) 1,973 ? 48.0°
Sets 22:34:56 0° 145° (SE) 2,869 ? 47.6°
